{"data":{"norad_id":61561,"epoch":"2026-09-22T21:16:41.647296Z","epoch_age_seconds":91226,"freshness":"FRESH","line1":"1 61561U 24185K   26265.88659314  .00000531  00000+0  20600-3 0  9993","line2":"2 61561  88.9869  43.6598 0009334  79.3467 280.8779 14.28490833110734","mean_motion":14.28490833,"eccentricity":0.0009334,"inclination_deg":88.9869,"raan_deg":43.6598,"arg_perigee_deg":79.3467,"mean_anomaly_deg":280.8779,"bstar":0.000206,"rev_number":11073,"period_min":100.80568714437,"perigee_km":790.08273456384,"apogee_km":803.47686924964,"semimajor_km":7174.9168019067,"source":"CELESTRAK","updated_at":"2026-09-23T09:00:20.905332Z"}}